EW8078 Weather Reports


Display with metric or nautical units.
time (UTC)temp
F
wind
direction
speed
MPH
gust
MPH
rain 1hr
in
rain 24hr
in
rain mn
in
humidity
%
barometer
mb
20260504194539 68 276 2.0 6.0 0.00 0.00 0.00 24 998.2
20260504193030 68 285 1.0 14.0 0.00 0.00 0.00 22 998.1
20260504191535 69 249 2.0 6.0 0.00 0.00 0.00 22 997.9
20260504190021 69 252 1.0 5.0 0.00 0.00 0.00 23 998.0
20260504184519 69 136 2.0 7.0 0.00 0.00 0.00 22 998.1
20260504183012 68 272 1.0 8.0 0.00 0.00 0.00 23 998.4
20260504181514 68 236 3.0 7.0 0.00 0.00 0.00 24 998.7
20260504180004 67 287 1.0 8.0 0.00 0.00 0.00 25 999.1
20260504174558 67 281 2.0 8.0 0.00 0.00 0.00 25 999.6
20260504173054 66 283 2.0 8.0 0.00 0.00 0.00 27 1000.0
20260504171554 65 264 2.0 6.0 0.00 0.00 0.00 27 1000.2
20260504081528 55 281 2.0 5.0 0.00 0.00 0.00 28 1001.7
20260504044542 62 269 3.0 10.0 0.00 0.00 0.00 24 1002.5
20260504043037 62 238 1.0 8.0 0.00 0.00 0.00 24 1002.4
20260504041531 63 212 2.0 6.0 0.00 0.00 0.00 25 1002.5
20260504040043 63 213 2.0 8.0 0.00 0.00 0.00 25 1002.6
20260504034524 63 221 3.0 8.0 0.00 0.00 0.00 25 1002.8
20260504033022 63 300 2.0 10.0 0.00 0.00 0.00 25 1002.7
20260504031515 63 243 2.0 8.0 0.00 0.00 0.00 25 1002.7
20260504030010 63 274 3.0 8.0 0.00 0.00 0.00 25 1002.6
20260504024504 64 231 0.0 6.0 0.00 0.00 0.00 24 1002.5
20260504023001 65 225 0.0 4.0 0.00 0.00 0.00 23 1002.3
20260504021557 65 176 0.0 6.0 0.00 0.00 0.00 23 1002.2
20260504020052 65 322 0.0 5.0 0.00 0.00 0.00 22 1002.0
20260504014559 65 230 0.0 4.0 0.00 0.00 0.00 22 1001.8
20260504013043 66 165 1.0 6.0 0.00 0.00 0.00 22 1001.6
20260504011541 66 333 0.0 1.0 0.00 0.00 0.00 22 1001.6
20260504010034 66 323 0.0 12.0 0.00 0.00 0.00 21 1001.8
20260504004540 67 134 1.0 9.0 0.00 0.00 0.00 22 1002.1
20260504003024 67 339 2.0 9.0 0.00 0.00 0.00 22 1002.3
20260504001520 68 43 0.0 2.0 0.00 0.00 0.00 22 1002.1
20260504000015 68 167 1.0 7.0 0.00 0.00 0.00 21 1002.5
20260503234510 68 101 0.0 3.0 0.00 0.00 0.00 21 1002.6
20260503233007 68 95 1.0 7.0 0.00 0.00 0.00 21 1002.7
20260503231502 69 296 0.0 3.0 0.00 0.00 0.00 20 1002.5
20260503230104 70 86 0.0 4.0 0.00 0.00 0.00 20 1002.3
20260503224553 70 105 2.0 8.0 0.00 0.00 0.00 19 1002.4
20260503223048 68 27 2.0 9.0 0.00 0.00 0.00 20 1002.4
20260503221552 69 307 1.0 7.0 0.00 0.00 0.00 20 1002.5
20260503220039 70 98 0.0 5.0 0.00 0.00 0.00 18 1002.5
20260503214534 70 42 2.0 11.0 0.00 0.00 0.00 17 1002.7
20260503213030 71 46 1.0 8.0 0.00 0.00 0.00 16 1003.0
20260503211525 73 247 1.0 4.0 0.00 0.00 0.00 15 1003.0
20260503210021 72 40 1.0 7.0 0.00 0.00 0.00 14 1003.2
20260503204525 73 99 0.0 5.0 0.00 0.00 0.00 14 1003.6
20260503203015 73 238 0.0 5.0 0.00 0.00 0.00 14 1003.5
20260503201508 73 282 3.0 7.0 0.00 0.00 0.00 14 1003.9
20260503200007 72 287 0.0 4.0 0.00 0.00 0.00 15 1003.8